Regional Weather Roundup
Issued by NWS

Home | Current Version | Previous Version | Graphics & Text | Print | Product List | Glossary On
Versions: 1 2 3 4 5 6 7 8 9 10 11 12 13 14 15 16 17 18 19 20 21 22 23 24 25 26 27 28 29 30 31 32 33 34 35 36 37 38 39 40 41 42 43 44 45 46 47 48 49 50
000
ASUS45 KABQ 040101
RWRNM
NEW MEXICO REGIONAL WEATHER ROUNDUP
NATIONAL WEATHER SERVICE ALBUQUERQUE NM
700 PM MDT FRI JUL 03 2015

NOTE: "FAIR" MEANS FEW OR NO CLOUDS BELOW 12,000 FEET AGL WITH NO
       SIGNIFICANT WEATHER OR OBSTRUCTIONS TO VISION.

      THIS PRODUCT IS RELEASED AS TWO VERSIONS.  ONE VERSION NEAR
      THE TOP OF THE HOUR CONTAINING PRELIMINARY DATA FROM ALBUQUERQUE
      AND OTHER STATIONS.  A FINAL VERSION WITH ADDITIONAL DATA IS
      ISSUED ABOUT 10 MINUTES AFTER THE HOUR.

NMZ501-503-504-510>518-040200-
NORTHWEST PLATEAU/NORTHCENTRAL MOUNTAINS

CITY           SKY/WX    TMP DP  RH WIND       PRES   REMARKS
FARMINGTON     SUNNY     79  50  36 E17G29    30.06R
SANTA FE       CLOUDY    75  49  39 SE10      30.16F
TAOS           CLOUDY    73  45  35 CALM      30.23

$$
NMZ402-403-502-505>509-040200-
WESTCENTRAL MOUNTAINS/SOUTHWEST MOUNTAINS

CITY           SKY/WX    TMP DP  RH WIND       PRES   REMARKS
GALLUP         CLOUDY    79  46  31 S10       30.13S
GRANTS         MOSUNNY   81  46  29 SE13      30.15R
SILVER CITY      N/A     81  55  41 NW9       30.08S

$$
NMZ407-409-411-412-040200-
SOUTHERN DESERTS

CITY           SKY/WX    TMP DP  RH WIND       PRES   REMARKS
LORDSBURG      FAIR      90  54  29 NW8       29.95S
DEMING         MOSUNNY   92  51  24 CALM      29.95S
HOLLOMAN AFB   MOSUNNY   88  56  33 SE17      29.95R
ALAMOGORDO     PTSUNNY   90  54  29 E15G23    29.99R
T OR C         LGT RAIN  80  63  55 N5        30.02F

$$
NMZ519>523-040200-
CENTRAL VALLEYS/CENTRAL HIGHLANDS

CITY           SKY/WX    TMP DP  RH WIND       PRES   REMARKS
ALBUQUERQUE    PTSUNNY   82  57  42 E12       30.08S
DOUBLE EAGLE   PTSUNNY   82  55  39 E15G21    30.12R
CLINES CORNERS LGT RAIN  64  58  80 E9        30.21F
BELEN          FAIR      88  51  27 E17       30.07R
SOCORRO        NOT AVBL

$$
NMZ524>526-539-540-040200-
SOUTHCENTRAL MOUNTAINS

CITY           SKY/WX    TMP DP  RH WIND       PRES   REMARKS
RUIDOSO        NOT AVBL

$$
NMZ527>531-040200-
NORTHEAST HIGHLANDS/NORTHEAST PLAINS

CITY           SKY/WX    TMP DP  RH WIND       PRES   REMARKS
LAS VEGAS      PTSUNNY   69  53  56 CALM      30.22F
RATON          CLOUDY    69  57  65 SW5       30.18S
CLAYTON        CLOUDY    67  60  78 E15       30.08F

$$
NMZ532>537-040200-
EASTCENTRAL PLAINS

CITY           SKY/WX    TMP DP  RH WIND       PRES   REMARKS
TUCUMCARI      CLOUDY    85  57  38 SW6       30.00F
CANNON AFB     CLOUDY    80  59  47 SE7       30.04F
CLOVIS AIRPORT CLOUDY    81  54  39 S6          N/A

$$
NMZ028-029-538-040200-
SOUTHEAST PLAINS

CITY           SKY/WX    TMP DP  RH WIND       PRES   REMARKS
ROSWELL        MOSUNNY   84  61  45 SE12      30.00F
ARTESIA        PTSUNNY   82  59  44 SE8       30.01S
CARLSBAD       CLOUDY    81  63  54 N5        29.98F
HOBBS          CLOUDY    75  63  64 N7        30.01F


$$



USA.gov is the U.S. government's official web portal to all federal, state and local government web resources and services.